Time,TemperatureF,DewpointF,PressureIn,WindDirection,WindDirectionDegrees,WindSpeedMPH,WindSpeedGustMPH,Humidity,HourlyPrecipIn,Conditions,Clouds,dailyrainin,SoftwareType,DateUTC
2013-02-24 00:01:00,11.0,10.0,-100.00,West,260,4.0,6.0,95,0.00,,,-99.99,,2013-02-24 07:01:00,
2013-02-24 00:11:00,11.0,10.0,-100.00,West,260,4.0,6.0,95,0.00,,,-99.99,,2013-02-24 07:11:00,
2013-02-24 00:21:00,10.0,9.0,-100.00,West,268,4.0,8.0,95,0.00,,,-99.99,,2013-02-24 07:21:00,
2013-02-24 00:31:00,10.0,9.0,-100.00,West,268,6.0,9.0,95,0.00,,,-99.99,,2013-02-24 07:31:00,
2013-02-24 00:41:00,10.0,9.0,-100.00,West,264,7.0,10.0,94,0.00,,,-99.99,,2013-02-24 07:41:00,
2013-02-24 00:51:00,10.0,9.0,-100.00,West,261,6.0,9.0,95,0.00,,,-99.99,,2013-02-24 07:51:00,
2013-02-24 01:01:00,10.0,9.0,-100.00,WSW,257,7.0,9.0,94,0.00,,,-99.99,,2013-02-24 08:01:00,
2013-02-24 01:11:00,9.0,8.0,-100.00,West,268,5.0,7.0,94,0.00,,,-99.99,,2013-02-24 08:11:00,
2013-02-24 01:21:00,10.0,9.0,-100.00,West,268,5.0,7.0,95,0.00,,,-99.99,,2013-02-24 08:21:00,
2013-02-24 01:31:00,10.0,9.0,-100.00,West,272,4.0,6.0,95,0.00,,,-99.99,,2013-02-24 08:31:00,
2013-02-24 01:41:00,10.0,8.0,-100.00,West,280,3.0,4.0,94,0.00,,,-99.99,,2013-02-24 08:41:00,
2013-02-24 01:53:00,10.0,9.0,-100.00,WNW,284,4.0,6.0,95,0.00,,,-99.99,,2013-02-24 08:53:00,
2013-02-24 02:01:00,10.0,9.0,-100.00,West,280,3.0,5.0,94,0.00,,,-99.99,,2013-02-24 09:01:00,
2013-02-24 02:11:00,10.0,9.0,-100.00,West,275,3.0,5.0,94,0.00,,,-99.99,,2013-02-24 09:11:00,
2013-02-24 02:21:00,10.0,8.0,-100.00,West,275,2.0,4.0,94,0.00,,,-99.99,,2013-02-24 09:21:00,
2013-02-24 02:31:00,10.0,9.0,-100.00,WSW,247,1.0,3.0,94,0.00,,,-99.99,,2013-02-24 09:31:00,
2013-02-24 02:41:00,10.0,9.0,-100.00,West,265,1.0,3.0,94,0.00,,,-99.99,,2013-02-24 09:41:00,
2013-02-24 02:51:00,10.0,9.0,-100.00,West,281,1.0,2.0,94,0.00,,,-99.99,,2013-02-24 09:51:00,
2013-02-24 03:01:00,11.0,10.0,-100.00,NW,323,2.0,4.0,95,0.00,,,-99.99,,2013-02-24 10:01:00,
2013-02-24 03:11:00,11.0,10.0,-100.00,WNW,302,1.0,2.0,95,0.04,,,-99.99,,2013-02-24 10:11:00,
2013-02-24 03:21:00,11.0,9.0,-100.00,NW,305,0.0,1.0,94,0.00,,,-99.99,,2013-02-24 10:21:00,
2013-02-24 03:31:00,11.0,10.0,-100.00,West,265,1.0,2.0,95,0.00,,,-99.99,,2013-02-24 10:31:00,
2013-02-24 03:41:00,11.0,9.0,-100.00,WSW,244,1.0,2.0,94,0.00,,,-99.99,,2013-02-24 10:41:00,
2013-02-24 03:51:00,11.0,9.0,-100.00,SSW,213,1.0,2.0,95,0.00,,,-99.99,,2013-02-24 10:51:00,
2013-02-24 04:01:00,10.0,9.0,-100.00,SSW,196,2.0,4.0,94,0.00,,,-99.99,,2013-02-24 11:01:00,
2013-02-24 04:11:00,10.0,9.0,-100.00,SW,215,2.0,4.0,94,0.00,,,-99.99,,2013-02-24 11:11:00,
2013-02-24 04:21:00,10.0,8.0,-100.00,WSW,254,1.0,2.0,94,0.00,,,-99.99,,2013-02-24 11:21:00,
2013-02-24 04:31:00,10.0,9.0,-100.00,WSW,243,0.0,1.0,95,0.00,,,-99.99,,2013-02-24 11:31:00,
2013-02-24 04:41:00,10.0,9.0,-100.00,SW,224,1.0,2.0,94,0.00,,,-99.99,,2013-02-24 11:41:00,
2013-02-24 04:52:00,9.0,8.0,-100.00,West,271,2.0,4.0,94,0.00,,,-99.99,,2013-02-24 11:52:00,
2013-02-24 05:01:00,9.0,8.0,-100.00,WNW,287,3.0,5.0,95,0.00,,,-99.99,,2013-02-24 12:01:00,
2013-02-24 05:11:00,10.0,9.0,-100.00,West,277,2.0,4.0,95,0.00,,,-99.99,,2013-02-24 12:11:00,
2013-02-24 05:21:00,10.0,9.0,-100.00,WSW,247,3.0,5.0,94,0.00,,,-99.99,,2013-02-24 12:21:00,
2013-02-24 05:31:00,10.0,9.0,-100.00,West,274,2.0,4.0,94,0.00,,,-99.99,,2013-02-24 12:31:00,
2013-02-24 05:43:00,10.0,9.0,-100.00,West,260,3.0,4.0,94,0.00,,,-99.99,,2013-02-24 12:43:00,
2013-02-24 06:03:00,10.0,8.0,-100.00,SSW,213,2.0,4.0,93,0.00,,,-99.99,,2013-02-24 13:03:00,
2013-02-24 06:22:00,10.0,8.0,-100.00,WSW,258,1.0,4.0,93,0.00,,,-99.99,,2013-02-24 13:22:00,
2013-02-24 06:32:00,10.0,8.0,-100.00,SSW,203,1.0,2.0,93,0.00,,,-99.99,,2013-02-24 13:32:00,
2013-02-24 06:42:00,9.0,8.0,-100.00,SW,224,0.0,2.0,93,0.00,,,-99.99,,2013-02-24 13:42:00,
2013-02-24 06:51:00,9.0,8.0,-100.00,NW,305,1.0,2.0,93,0.00,,,-99.99,,2013-02-24 13:51:00,
2013-02-24 07:01:00,10.0,8.0,-100.00,SW,234,1.0,2.0,92,0.00,,,-99.99,,2013-02-24 14:01:00,
2013-02-24 07:11:00,9.0,7.0,-100.00,West,275,1.0,1.0,93,0.00,,,-99.99,,2013-02-24 14:11:00,
2013-02-24 07:21:00,8.0,6.0,-100.00,West,281,2.0,4.0,92,0.00,,,-99.99,,2013-02-24 14:21:00,
2013-02-24 07:31:00,8.0,7.0,-100.00,WNW,291,3.0,6.0,94,0.00,,,-99.99,,2013-02-24 14:31:00,
2013-02-24 07:42:00,8.0,6.0,-100.00,West,280,4.0,7.0,92,0.00,,,-99.99,,2013-02-24 14:42:00,
2013-02-24 07:52:00,7.0,6.0,-100.00,WNW,284,4.0,6.0,93,0.00,,,-99.99,,2013-02-24 14:52:00,
2013-02-24 08:01:00,8.0,6.0,-100.00,WNW,287,4.0,7.0,93,0.00,,,-99.99,,2013-02-24 15:01:00,
2013-02-24 08:11:00,8.0,6.0,-100.00,WNW,299,3.0,6.0,93,0.00,,,-99.99,,2013-02-24 15:11:00,
2013-02-24 08:21:00,9.0,8.0,-100.00,West,268,2.0,4.0,93,0.00,,,-99.99,,2013-02-24 15:21:00,
2013-02-24 08:31:00,9.0,7.0,-100.00,West,274,4.0,7.0,92,0.00,,,-99.99,,2013-02-24 15:31:00,
2013-02-24 08:41:00,10.0,8.0,-100.00,West,270,4.0,7.0,92,0.00,,,-99.99,,2013-02-24 15:41:00,
2013-02-24 08:52:00,11.0,9.0,-100.00,West,280,3.0,5.0,93,0.00,,,-99.99,,2013-02-24 15:52:00,
2013-02-24 09:01:00,11.0,9.0,-100.00,WNW,282,2.0,4.0,92,0.00,,,-99.99,,2013-02-24 16:01:00,
2013-02-24 09:11:00,12.0,10.0,-100.00,West,272,3.0,6.0,92,0.00,,,-99.99,,2013-02-24 16:11:00,
2013-02-24 09:21:00,12.0,10.0,-100.00,West,277,3.0,5.0,92,0.00,,,-99.99,,2013-02-24 16:21:00,
2013-02-24 09:31:00,12.0,10.0,-100.00,West,263,3.0,4.0,90,0.00,,,-99.99,,2013-02-24 16:31:00,
2013-02-24 09:51:00,14.0,11.0,-100.00,West,271,3.0,6.0,89,0.00,,,-99.99,,2013-02-24 16:51:00,
2013-02-24 10:01:00,14.0,12.0,-100.00,West,267,4.0,6.0,90,0.00,,,-99.99,,2013-02-24 17:01:00,
2013-02-24 10:11:00,15.0,11.0,-100.00,West,267,4.0,6.0,86,0.00,,,-99.99,,2013-02-24 17:11:00,
2013-02-24 10:21:00,15.0,12.0,-100.00,West,264,4.0,6.0,87,0.00,,,-99.99,,2013-02-24 17:21:00,
2013-02-24 10:31:00,15.0,11.0,-100.00,West,265,4.0,6.0,83,0.00,,,-99.99,,2013-02-24 17:31:00,
2013-02-24 10:41:00,15.0,11.0,-100.00,West,271,6.0,8.0,80,0.00,,,-99.99,,2013-02-24 17:41:00,
2013-02-24 10:52:00,15.0,10.0,-100.00,West,270,7.0,12.0,80,0.00,,,-99.99,,2013-02-24 17:52:00,
2013-02-24 11:01:00,15.0,9.0,-100.00,WSW,253,9.0,13.0,79,0.00,,,-99.99,,2013-02-24 18:01:00,
2013-02-24 11:11:00,16.0,10.0,-100.00,WSW,254,8.0,12.0,79,0.00,,,-99.99,,2013-02-24 18:11:00,
2013-02-24 11:21:00,16.0,11.0,-100.00,WSW,257,7.0,11.0,79,0.00,,,-99.99,,2013-02-24 18:21:00,
2013-02-24 11:31:00,16.0,10.0,-100.00,WSW,256,8.0,11.0,77,0.00,,,-99.99,,2013-02-24 18:31:00,
2013-02-24 11:41:00,16.0,11.0,-100.00,WSW,256,8.0,11.0,80,0.00,,,-99.99,,2013-02-24 18:41:00,
2013-02-24 11:51:00,17.0,10.0,-100.00,WSW,254,7.0,12.0,76,0.00,,,-99.99,,2013-02-24 18:51:00,
2013-02-24 12:01:00,17.0,11.0,-100.00,WSW,253,7.0,11.0,77,0.00,,,-99.99,,2013-02-24 19:01:00,
2013-02-24 12:11:00,18.0,11.0,-100.00,WSW,258,6.0,11.0,75,0.00,,,-99.99,,2013-02-24 19:11:00,
2013-02-24 12:21:00,18.0,11.0,-100.00,WSW,253,7.0,11.0,74,0.00,,,-99.99,,2013-02-24 19:21:00,
2013-02-24 12:31:00,18.0,9.0,-100.00,WSW,248,9.0,12.0,69,0.00,,,-99.99,,2013-02-24 19:31:00,
2013-02-24 12:41:00,18.0,11.0,-100.00,WSW,253,7.0,11.0,72,0.00,,,-99.99,,2013-02-24 19:41:00,
2013-02-24 12:51:00,18.0,10.0,-100.00,West,263,7.0,11.0,69,0.00,,,-99.99,,2013-02-24 19:51:00,
2013-02-24 13:01:00,19.0,11.0,-100.00,West,260,6.0,11.0,68,0.00,,,-99.99,,2013-02-24 20:01:00,
2013-02-24 13:11:00,20.0,11.0,-100.00,West,264,6.0,11.0,69,0.00,,,-99.99,,2013-02-24 20:11:00,
2013-02-24 13:21:00,21.0,12.0,-100.00,West,277,6.0,11.0,67,0.00,,,-99.99,,2013-02-24 20:21:00,
2013-02-24 13:31:00,20.0,11.0,-100.00,West,264,7.0,12.0,65,0.00,,,-99.99,,2013-02-24 20:31:00,
2013-02-24 13:41:00,21.0,12.0,-100.00,WSW,257,7.0,12.0,68,0.00,,,-99.99,,2013-02-24 20:41:00,
2013-02-24 13:52:00,22.0,12.0,-100.00,West,265,7.0,11.0,65,0.00,,,-99.99,,2013-02-24 20:52:00,
2013-02-24 14:01:00,21.0,10.0,-100.00,West,260,7.0,13.0,63,0.00,,,-99.99,,2013-02-24 21:01:00,
2013-02-24 14:11:00,21.0,11.0,-100.00,WSW,256,7.0,12.0,64,0.00,,,-99.99,,2013-02-24 21:11:00,
2013-02-24 14:21:00,20.0,10.0,-100.00,West,261,9.0,19.0,67,0.00,,,-99.99,,2013-02-24 21:21:00,
2013-02-24 14:31:00,22.0,12.0,-100.00,West,261,11.0,17.0,65,0.00,,,-99.99,,2013-02-24 21:31:00,
2013-02-24 14:41:00,22.0,9.0,-100.00,West,264,12.0,21.0,56,0.00,,,-99.99,,2013-02-24 21:41:00,
2013-02-24 14:52:00,21.0,9.0,-100.00,WSW,254,16.0,21.0,58,0.00,,,-99.99,,2013-02-24 21:52:00,
2013-02-24 15:01:00,21.0,7.0,-100.00,WSW,248,17.0,27.0,54,0.00,,,-99.99,,2013-02-24 22:01:00,
2013-02-24 15:11:00,21.0,7.0,-100.00,WSW,248,15.0,22.0,53,0.00,,,-99.99,,2013-02-24 22:11:00,
2013-02-24 15:21:00,22.0,6.0,-100.00,WSW,253,18.0,27.0,50,0.00,,,-99.99,,2013-02-24 22:21:00,
2013-02-24 15:31:00,22.0,3.0,-100.00,West,260,19.0,29.0,45,0.00,,,-99.99,,2013-02-24 22:31:00,
2013-02-24 15:41:00,22.0,3.0,-100.00,WSW,258,20.0,27.0,43,0.00,,,-99.99,,2013-02-24 22:41:00,
2013-02-24 15:51:00,22.0,1.0,-100.00,WSW,254,19.0,28.0,39,0.00,,,-99.99,,2013-02-24 22:51:00,
2013-02-24 16:01:00,22.0,0.0,-100.00,WSW,257,20.0,27.0,37,0.00,,,-99.99,,2013-02-24 23:01:00,
2013-02-24 16:11:00,22.0,1.0,-100.00,WSW,258,21.0,32.0,39,0.00,,,-99.99,,2013-02-24 23:11:00,
2013-02-24 16:21:00,22.0,1.0,-100.00,West,261,19.0,27.0,38,0.00,,,-99.99,,2013-02-24 23:21:00,
2013-02-24 16:31:00,22.0,1.0,-100.00,West,260,21.0,30.0,39,0.00,,,-99.99,,2013-02-24 23:31:00,
2013-02-24 16:41:00,22.0,2.0,-100.00,West,260,23.0,32.0,41,0.00,,,-99.99,,2013-02-24 23:41:00,
2013-02-24 16:52:00,22.0,2.0,-100.00,West,261,21.0,36.0,41,0.00,,,-99.99,,2013-02-24 23:52:00,
2013-02-24 17:01:00,21.0,3.0,-100.00,WSW,257,23.0,32.0,44,0.00,,,-99.99,,2013-02-25 00:01:00,
2013-02-24 17:11:00,22.0,3.0,-100.00,WSW,258,23.0,32.0,44,0.00,,,-99.99,,2013-02-25 00:11:00,
2013-02-24 17:21:00,21.0,5.0,-100.00,West,261,21.0,37.0,48,0.00,,,-99.99,,2013-02-25 00:21:00,
2013-02-24 17:31:00,21.0,4.0,-100.00,West,264,19.0,35.0,48,0.00,,,-99.99,,2013-02-25 00:31:00,
2013-02-24 17:41:00,21.0,5.0,-100.00,West,261,22.0,35.0,49,0.00,,,-99.99,,2013-02-25 00:41:00,
2013-02-24 17:51:00,20.0,3.0,-100.00,West,260,22.0,33.0,46,0.00,,,-99.99,,2013-02-25 00:51:00,
2013-02-24 18:02:00,-999.0,-99.9,-100.00,West,261,21.0,32.0,-999,-99.99,,,-99.99,,2013-02-25 01:02:00,
2013-02-24 18:11:00,19.0,3.0,-100.00,West,263,18.0,29.0,49,0.00,,,-99.99,,2013-02-25 01:11:00,
2013-02-24 18:21:00,19.0,3.0,-100.00,West,264,21.0,34.0,49,0.00,,,-99.99,,2013-02-25 01:21:00,
2013-02-24 18:31:00,18.0,3.0,-100.00,West,263,21.0,31.0,50,0.00,,,-99.99,,2013-02-25 01:31:00,
2013-02-24 18:41:00,18.0,3.0,-100.00,West,260,27.0,37.0,50,0.00,,,-99.99,,2013-02-25 01:41:00,
2013-02-24 18:51:00,18.0,3.0,-100.00,West,260,28.0,41.0,50,0.00,,,-99.99,,2013-02-25 01:51:00,
2013-02-24 19:01:00,18.0,4.0,-100.00,West,260,30.0,44.0,52,0.00,,,-99.99,,2013-02-25 02:01:00,
2013-02-24 19:11:00,18.0,3.0,-100.00,West,263,30.0,46.0,52,0.00,,,-99.99,,2013-02-25 02:11:00,
2013-02-24 19:21:00,18.0,3.0,-100.00,West,263,32.0,47.0,52,0.00,,,-99.99,,2013-02-25 02:21:00,
2013-02-24 19:31:00,18.0,2.0,-100.00,West,264,33.0,49.0,49,0.00,,,-99.99,,2013-02-25 02:31:00,
2013-02-24 19:41:00,17.0,1.0,-100.00,West,261,32.0,49.0,49,0.00,,,-99.99,,2013-02-25 02:41:00,
2013-02-24 19:51:00,17.0,2.0,-100.00,West,261,32.0,46.0,50,0.00,,,-99.99,,2013-02-25 02:51:00,
2013-02-24 20:01:00,17.0,2.0,-100.00,West,263,35.0,48.0,50,0.00,,,-99.99,,2013-02-25 03:01:00,
2013-02-24 20:11:00,17.0,2.0,-100.00,West,260,37.0,52.0,50,0.00,,,-99.99,,2013-02-25 03:11:00,
2013-02-24 20:21:00,17.0,2.0,-100.00,WSW,257,37.0,54.0,52,0.00,,,-99.99,,2013-02-25 03:21:00,
2013-02-24 20:31:00,16.0,3.0,-100.00,WSW,257,36.0,49.0,54,0.00,,,-99.99,,2013-02-25 03:31:00,
2013-02-24 20:41:00,16.0,3.0,-100.00,WSW,257,38.0,48.0,56,0.00,,,-99.99,,2013-02-25 03:41:00,
2013-02-24 20:51:00,16.0,3.0,-100.00,WSW,258,35.0,48.0,56,0.00,,,-99.99,,2013-02-25 03:51:00,
2013-02-24 21:01:00,16.0,4.0,-100.00,WSW,257,36.0,50.0,58,0.00,,,-99.99,,2013-02-25 04:01:00,
2013-02-24 21:11:00,15.0,4.0,-100.00,WSW,257,35.0,47.0,59,0.00,,,-99.99,,2013-02-25 04:11:00,
2013-02-24 21:21:00,15.0,4.0,-100.00,WSW,258,35.0,49.0,59,0.00,,,-99.99,,2013-02-25 04:21:00,
2013-02-24 21:31:00,15.0,4.0,-100.00,WSW,257,35.0,47.0,59,0.00,,,-99.99,,2013-02-25 04:31:00,
2013-02-24 21:41:00,15.0,3.0,-100.00,WSW,258,36.0,47.0,59,0.00,,,-99.99,,2013-02-25 04:41:00,
2013-02-24 21:51:00,15.0,3.0,-100.00,WSW,257,35.0,47.0,58,0.00,,,-99.99,,2013-02-25 04:51:00,
2013-02-24 22:01:00,15.0,3.0,-100.00,WSW,258,31.0,43.0,58,0.00,,,-99.99,,2013-02-25 05:01:00,
2013-02-24 22:11:00,15.0,2.0,-100.00,West,261,32.0,43.0,58,0.00,,,-99.99,,2013-02-25 05:11:00,
2013-02-24 22:21:00,15.0,2.0,-100.00,WSW,257,30.0,43.0,57,0.00,,,-99.99,,2013-02-25 05:21:00,
2013-02-24 22:31:00,14.0,2.0,-100.00,WSW,258,30.0,39.0,57,0.00,,,-99.99,,2013-02-25 05:31:00,
2013-02-24 22:41:00,14.0,2.0,-100.00,WSW,257,31.0,39.0,57,0.00,,,-99.99,,2013-02-25 05:41:00,
2013-02-24 22:52:00,13.0,2.0,-100.00,West,260,26.0,37.0,60,0.00,,,-99.99,,2013-02-25 05:52:00,
2013-02-24 23:02:00,14.0,2.0,-100.00,West,260,26.0,34.0,58,0.00,,,-99.99,,2013-02-25 06:02:00,
2013-02-24 23:11:00,13.0,2.0,-100.00,WSW,258,27.0,39.0,60,0.00,,,-99.99,,2013-02-25 06:11:00,
2013-02-24 23:21:00,13.0,2.0,-100.00,West,263,22.0,32.0,61,0.00,,,-99.99,,2013-02-25 06:21:00,
2013-02-24 23:31:00,13.0,2.0,-100.00,West,260,24.0,32.0,60,0.00,,,-99.99,,2013-02-25 06:31:00,
2013-02-24 23:41:00,13.0,1.0,-100.00,WSW,257,26.0,34.0,60,0.00,,,-99.99,,2013-02-25 06:41:00,
2013-02-24 23:51:00,13.0,2.0,-100.00,WSW,258,25.0,34.0,61,0.00,,,-99.99,,2013-02-25 06:51:00,